User: anonymous   Login
Location: Caltech
(34.1382°N, 118.1253°W)
Time: 18:09:20
(UTC-07:00)
Language:

ITAMSAT 1 - Orbit

View from above orbital plane
View from above orbital plane
View from above satellite
View from above satellite

Ground track
Ground track

The orbit data is extracted from the following two-line orbital elements,

1 22826U 93061D   15090.45356467  .00000252  00000-0  11468-3 0  9996
2 22826 098.6951 040.7541 0009188 161.3533 198.7987 14.30168886121973
Epoch (UTC): 31 March 2015 10:53:07
Eccentricity: 0.0009188
inclination: 98.6951°
perigee height: 784 km
apogee height: 798 km
right ascension of ascending node: 40.7541°
argument of perigee: 161.3533°
revolutions per day: 14.30168886
mean anomaly at epoch: 198.7987°
orbit number at epoch: 12197

The dashed part of the orbit path shows where the satellite is in the earth's shadow,  

DLR